owner,sensor,date,latitude,longitude,vertical_datum,direction_of_sea_water_velocity,sea_water_speed,upward_sea_water_velocity,qcFlag 
TABS,ioos:station:wmo:42048:1,2017-07-01T00:00:00Z,27.9396,-96.8429,2.0,38.85722041,29.93400241,-99999.0,'11111222,11111222,99999999' 
TABS,ioos:station:wmo:42048:1,2017-07-01T00:30:00Z,27.9396,-96.8429,2.0,34.69528286,30.6740933,-99999.0,'11111222,11111222,99999999' 
TABS,ioos:station:wmo:42048:1,2017-07-01T01:00:00Z,27.9396,-96.8429,2.0,38.9292589,32.22681182,-99999.0,'11111222,11111222,99999999' 
TABS,ioos:station:wmo:42048:1,2017-07-01T01:30:00Z,27.9396,-96.8429,2.0,36.2972635,32.01159946,-99999.0,'11111222,11111222,99999999' 
TABS,ioos:station:wmo:42048:1,2017-07-01T02:00:00Z,27.9396,-96.8429,2.0,37.31882808,36.76712798,-99999.0,'11111222,11111222,99999999' 
TABS,ioos:station:wmo:42048:1,2017-07-01T02:30:00Z,27.9396,-96.8429,2.0,32.14978157,36.62622285,-99999.0,'11111222,11111222,99999999' 
TABS,ioos:station:wmo:42048:1,2017-07-01T03:00:00Z,27.9396,-96.8429,2.0,35.87730367,39.8259777,-99999.0,'11111222,11111222,99999999' 
TABS,ioos:station:wmo:42048:1,2017-07-01T03:30:00Z,27.9396,-96.8429,2.0,35.42882492,42.7815334,-99999.0,'11111222,11111222,99999999' 
TABS,ioos:station:wmo:42048:1,2017-07-01T04:00:00Z,27.9396,-96.8429,2.0,31.76201655,38.65953181,-99999.0,'11111222,11111222,99999999' 
TABS,ioos:station:wmo:42048:1,2017-07-01T04:30:00Z,27.9396,-96.8429,2.0,32.15589676,39.98325775,-99999.0,'11111222,11111222,99999999' 
TABS,ioos:station:wmo:42048:1,2017-07-01T05:00:00Z,27.9396,-96.8429,2.0,24.99431208,41.10990756,-99999.0,'11111222,11111222,99999999' 
TABS,ioos:station:wmo:42048:1,2017-07-01T05:30:00Z,27.9396,-96.8429,2.0,22.90526752,33.83811165,-99999.0,'11111222,11111222,99999999' 
TABS,ioos:station:wmo:42048:1,2017-07-01T06:00:00Z,27.9396,-96.8429,2.0,29.76756179,40.98852156,-99999.0,'11111222,11111222,99999999' 
TABS,ioos:station:wmo:42048:1,2017-07-01T06:30:00Z,27.9396,-96.8429,2.0,40.29903587,32.2677703,-99999.0,'11111222,11111222,99999999' 
TABS,ioos:station:wmo:42048:1,2017-07-01T07:00:00Z,27.9396,-96.8429,2.0,36.63955309,28.8382333,-99999.0,'11111222,11111222,99999999' 
TABS,ioos:station:wmo:42048:1,2017-07-01T07:30:00Z,27.9396,-96.8429,2.0,44.17278879,35.26001985,-99999.0,'11111222,11111222,99999999' 
TABS,ioos:station:wmo:42048:1,2017-07-01T08:00:00Z,27.9396,-96.8429,2.0,44.7660648,36.3526629,-99999.0,'11111222,11111222,99999999' 
TABS,ioos:station:wmo:42048:1,2017-07-01T08:30:00Z,27.9396,-96.8429,2.0,40.91531711,35.2397971,-99999.0,'11111222,11111222,99999999' 
TABS,ioos:station:wmo:42048:1,2017-07-01T09:00:00Z,27.9396,-96.8429,2.0,44.45491042,33.4405936,-99999.0,'11111222,11111222,99999999' 
TABS,ioos:station:wmo:42048:1,2017-07-01T09:30:00Z,27.9396,-96.8429,2.0,45.30468642,35.91446088,-99999.0,'11111222,11111222,99999999' 
TABS,ioos:station:wmo:42048:1,2017-07-01T10:00:00Z,27.9396,-96.8429,2.0,43.86808053,41.87596566,-99999.0,'11111222,11111222,99999999' 
TABS,ioos:station:wmo:42048:1,2017-07-01T10:30:00Z,27.9396,-96.8429,2.0,43.99846648,41.25891419,-99999.0,'11111222,11111222,99999999' 
TABS,ioos:station:wmo:42048:1,2017-07-01T11:00:00Z,27.9396,-96.8429,2.0,45.27350916,47.41912062,-99999.0,'11111222,11111222,99999999' 
TABS,ioos:station:wmo:42048:1,2017-07-01T11:30:00Z,27.9396,-96.8429,2.0,44.18890944,45.45030803,-99999.0,'11111222,11111222,99999999' 
TABS,ioos:station:wmo:42048:1,2017-07-01T12:00:00Z,27.9396,-96.8429,2.0,46.82852125,47.64790132,-99999.0,'11111222,11111222,99999999' 
TABS,ioos:station:wmo:42048:1,2017-07-01T12:30:00Z,27.9396,-96.8429,2.0,48.89700757,43.59493204,-99999.0,'11111222,11111222,99999999' 
TABS,ioos:station:wmo:42048:1,2017-07-01T13:00:00Z,27.9396,-96.8429,2.0,53.0003557,37.95209744,-99999.0,'11111222,11111222,99999999' 
TABS,ioos:station:wmo:42048:1,2017-07-01T13:30:00Z,27.9396,-96.8429,2.0,44.85765779,51.19468918,-99999.0,'11111222,11111222,99999999' 
TABS,ioos:station:wmo:42048:1,2017-07-01T14:00:00Z,27.9396,-96.8429,2.0,50.04446137,55.73080387,-99999.0,'11111222,11111222,99999999' 
TABS,ioos:station:wmo:42048:1,2017-07-01T14:30:00Z,27.9396,-96.8429,2.0,47.78439289,55.16996012,-99999.0,'11111222,11111222,99999999' 
TABS,ioos:station:wmo:42048:1,2017-07-01T15:00:00Z,27.9396,-96.8429,2.0,47.64722997,51.59607059,-99999.0,'11111222,11111222,99999999' 
TABS,ioos:station:wmo:42048:1,2017-07-01T15:30:00Z,27.9396,-96.8429,2.0,50.55917423,49.48981713,-99999.0,'11111222,11111222,99999999' 
TABS,ioos:station:wmo:42048:1,2017-07-01T16:00:00Z,27.9396,-96.8429,2.0,50.71454669,52.19638397,-99999.0,'11111222,11111222,99999999' 
TABS,ioos:station:wmo:42048:1,2017-07-01T16:30:00Z,27.9396,-96.8429,2.0,52.01250005,54.44435875,-99999.0,'11111222,11111222,99999999' 
TABS,ioos:station:wmo:42048:1,2017-07-01T17:00:00Z,27.9396,-96.8429,2.0,52.70309685,49.90538648,-99999.0,'11111222,11111222,99999999' 
TABS,ioos:station:wmo:42048:1,2017-07-01T17:30:00Z,27.9396,-96.8429,2.0,50.53993581,48.63569265,-99999.0,'11111222,11111222,99999999' 
TABS,ioos:station:wmo:42048:1,2017-07-01T18:00:00Z,27.9396,-96.8429,2.0,47.54366754,43.65735906,-99999.0,'11111222,11111222,99999999' 
TABS,ioos:station:wmo:42048:1,2017-07-01T18:30:00Z,27.9396,-96.8429,2.0,50.41834464,45.23065332,-99999.0,'11111222,11111222,99999999' 
TABS,ioos:station:wmo:42048:1,2017-07-01T19:00:00Z,27.9396,-96.8429,2.0,53.48119805,42.76680255,-99999.0,'11111222,11111222,99999999' 
TABS,ioos:station:wmo:42048:1,2017-07-01T19:30:00Z,27.9396,-96.8429,2.0,49.53648152,37.01278158,-99999.0,'11111222,11111222,99999999' 
TABS,ioos:station:wmo:42048:1,2017-07-01T20:00:00Z,27.9396,-96.8429,2.0,49.81206236,37.59502627,-99999.0,'11111222,11111222,99999999' 
TABS,ioos:station:wmo:42048:1,2017-07-01T20:30:00Z,27.9396,-96.8429,2.0,52.33144171,39.45383378,-99999.0,'11111222,11111222,99999999' 
TABS,ioos:station:wmo:42048:1,2017-07-01T21:00:00Z,27.9396,-96.8429,2.0,49.9537854,37.17711662,-99999.0,'11111222,11111222,99999999' 
TABS,ioos:station:wmo:42048:1,2017-07-01T21:30:00Z,27.9396,-96.8429,2.0,44.73708193,36.96793205,-99999.0,'11111222,11111222,99999999' 
TABS,ioos:station:wmo:42048:1,2017-07-01T22:00:00Z,27.9396,-96.8429,2.0,44.20587402,37.74898674,-99999.0,'11111222,11111222,99999999' 
TABS,ioos:station:wmo:42048:1,2017-07-01T22:30:00Z,27.9396,-96.8429,2.0,44.03638653,35.73516056,-99999.0,'11111222,11111222,99999999' 
TABS,ioos:station:wmo:42048:1,2017-07-01T23:00:00Z,27.9396,-96.8429,2.0,40.47566513,36.57239396,-99999.0,'11111222,11111222,99999999' 
TABS,ioos:station:wmo:42048:1,2017-07-01T23:30:00Z,27.9396,-96.8429,2.0,38.18041414,29.29766202,-99999.0,'11111222,11111222,99999999' 
TABS,ioos:station:wmo:42048:1,2017-07-02T00:00:00Z,27.9396,-96.8429,2.0,37.56757138,30.5562645,-99999.0,'11111222,11111222,99999999' 
TABS,ioos:station:wmo:42048:1,2017-07-02T00:30:00Z,27.9396,-96.8429,2.0,32.09752015,34.3270156,-99999.0,'11111222,11111222,99999999' 
TABS,ioos:station:wmo:42048:1,2017-07-02T01:00:00Z,27.9396,-96.8429,2.0,34.90481412,34.93454737,-99999.0,'11111222,11111222,99999999' 
TABS,ioos:station:wmo:42048:1,2017-07-02T01:30:00Z,27.9396,-96.8429,2.0,34.27467346,41.87094936,-99999.0,'11111222,11111222,99999999' 
TABS,ioos:station:wmo:42048:1,2017-07-02T02:00:00Z,27.9396,-96.8429,2.0,36.70131233,40.07417373,-99999.0,'11111222,11111222,99999999' 
TABS,ioos:station:wmo:42048:1,2017-07-02T02:30:00Z,27.9396,-96.8429,2.0,33.91617858,41.48912388,-99999.0,'11111222,11111222,99999999' 
TABS,ioos:station:wmo:42048:1,2017-07-02T03:00:00Z,27.9396,-96.8429,2.0,39.64487445,43.33681345,-99999.0,'11111222,11111222,99999999' 
TABS,ioos:station:wmo:42048:1,2017-07-02T03:30:00Z,27.9396,-96.8429,2.0,37.66627691,44.75832213,-99999.0,'11111222,11111222,99999999' 
TABS,ioos:station:wmo:42048:1,2017-07-02T04:00:00Z,27.9396,-96.8429,2.0,34.00907521,43.3560388,-99999.0,'11111222,11111222,99999999' 
TABS,ioos:station:wmo:42048:1,2017-07-02T04:30:00Z,27.9396,-96.8429,2.0,37.8718514,46.32708171,-99999.0,'11111222,11111222,99999999' 
TABS,ioos:station:wmo:42048:1,2017-07-02T05:00:00Z,27.9396,-96.8429,2.0,41.64508206,45.79293941,-99999.0,'11111222,11111222,99999999' 
TABS,ioos:station:wmo:42048:1,2017-07-02T05:30:00Z,27.9396,-96.8429,2.0,40.55044275,45.11504516,-99999.0,'11111222,11111222,99999999' 
TABS,ioos:station:wmo:42048:1,2017-07-02T06:00:00Z,27.9396,-96.8429,2.0,42.89424032,33.48290609,-99999.0,'11111222,11111222,99999999' 
TABS,ioos:station:wmo:42048:1,2017-07-02T06:30:00Z,27.9396,-96.8429,2.0,38.45344428,34.23507266,-99999.0,'11111222,11111222,99999999' 
TABS,ioos:station:wmo:42048:1,2017-07-02T07:00:00Z,27.9396,-96.8429,2.0,47.45174612,43.64014895,-99999.0,'11111222,11111222,99999999' 
TABS,ioos:station:wmo:42048:1,2017-07-02T07:30:00Z,27.9396,-96.8429,2.0,45.38880785,41.69197525,-99999.0,'11111222,11111222,99999999' 
TABS,ioos:station:wmo:42048:1,2017-07-02T08:00:00Z,27.9396,-96.8429,2.0,40.15083878,38.89574913,-99999.0,'11111222,11111222,99999999' 
TABS,ioos:station:wmo:42048:1,2017-07-02T08:30:00Z,27.9396,-96.8429,2.0,42.72693993,44.56865715,-99999.0,'11111222,11111222,99999999' 
TABS,ioos:station:wmo:42048:1,2017-07-02T09:00:00Z,27.9396,-96.8429,2.0,42.15329236,44.13550498,-99999.0,'11111222,11111222,99999999' 
TABS,ioos:station:wmo:42048:1,2017-07-02T09:30:00Z,27.9396,-96.8429,2.0,40.60012829,48.48070338,-99999.0,'11111222,11111222,99999999' 
TABS,ioos:station:wmo:42048:1,2017-07-02T10:00:00Z,27.9396,-96.8429,2.0,40.46855966,45.37546584,-99999.0,'11111222,11111222,99999999' 
TABS,ioos:station:wmo:42048:1,2017-07-02T10:30:00Z,27.9396,-96.8429,2.0,41.17674971,40.61468331,-99999.0,'11111222,11111222,99999999' 
TABS,ioos:station:wmo:42048:1,2017-07-02T11:00:00Z,27.9396,-96.8429,2.0,45.01643343,49.62475592,-99999.0,'11111222,11111222,99999999' 
TABS,ioos:station:wmo:42048:1,2017-07-02T11:30:00Z,27.9396,-96.8429,2.0,43.37339339,44.58690951,-99999.0,'11111222,11111222,99999999' 
TABS,ioos:station:wmo:42048:1,2017-07-02T12:00:00Z,27.9396,-96.8429,2.0,47.85944528,39.68981985,-99999.0,'11111222,11111222,99999999' 
TABS,ioos:station:wmo:42048:1,2017-07-02T12:30:00Z,27.9396,-96.8429,2.0,42.98341255,38.7805428,-99999.0,'11111222,11111222,99999999' 
TABS,ioos:station:wmo:42048:1,2017-07-02T13:00:00Z,27.9396,-96.8429,2.0,47.10904707,32.08902772,-99999.0,'11111222,11111222,99999999' 
TABS,ioos:station:wmo:42048:1,2017-07-02T13:30:00Z,27.9396,-96.8429,2.0,49.21697898,31.44531285,-99999.0,'11111222,11111222,99999999' 
TABS,ioos:station:wmo:42048:1,2017-07-02T14:00:00Z,27.9396,-96.8429,2.0,49.13039135,40.05556391,-99999.0,'11111222,11111222,99999999' 
TABS,ioos:station:wmo:42048:1,2017-07-02T14:30:00Z,27.9396,-96.8429,2.0,48.14889229,34.7572755,-99999.0,'11111222,11111222,99999999' 
TABS,ioos:station:wmo:42048:1,2017-07-02T15:00:00Z,27.9396,-96.8429,2.0,52.55620479,36.13581326,-99999.0,'11111222,11111222,99999999' 
TABS,ioos:station:wmo:42048:1,2017-07-02T15:30:00Z,27.9396,-96.8429,2.0,49.29621608,40.58883837,-99999.0,'11111222,11111222,99999999' 
TABS,ioos:station:wmo:42048:1,2017-07-02T16:00:00Z,27.9396,-96.8429,2.0,48.75057435,42.37573834,-99999.0,'11111222,11111222,99999999' 
TABS,ioos:station:wmo:42048:1,2017-07-02T16:30:00Z,27.9396,-96.8429,2.0,33.56018119,56.22178314,-99999.0,'11111222,11111222,99999999' 
TABS,ioos:station:wmo:42048:1,2017-07-02T17:00:00Z,27.9396,-96.8429,2.0,68.9645056,41.81675502,-99999.0,'11111222,11111222,99999999' 
TABS,ioos:station:wmo:42048:1,2017-07-02T17:30:00Z,27.9396,-96.8429,2.0,49.52554034,34.32390566,-99999.0,'11111222,11111222,99999999' 
TABS,ioos:station:wmo:42048:1,2017-07-02T18:00:00Z,27.9396,-96.8429,2.0,44.55182505,37.95865382,-99999.0,'11111222,11111222,99999999' 
TABS,ioos:station:wmo:42048:1,2017-07-02T18:30:00Z,27.9396,-96.8429,2.0,53.03203332,33.85604968,-99999.0,'11111222,11111222,99999999' 
TABS,ioos:station:wmo:42048:1,2017-07-02T19:00:00Z,27.9396,-96.8429,2.0,50.46156024,35.43843253,-99999.0,'11111222,11111222,99999999' 
TABS,ioos:station:wmo:42048:1,2017-07-02T19:30:00Z,27.9396,-96.8429,2.0,50.36002943,36.7889902,-99999.0,'11111222,11111222,99999999' 
TABS,ioos:station:wmo:42048:1,2017-07-02T20:00:00Z,27.9396,-96.8429,2.0,45.21129353,38.36787458,-99999.0,'11111222,11111222,99999999' 
TABS,ioos:station:wmo:42048:1,2017-07-02T20:30:00Z,27.9396,-96.8429,2.0,44.55613391,36.50194789,-99999.0,'11111222,11111222,99999999' 
TABS,ioos:station:wmo:42048:1,2017-07-02T21:00:00Z,27.9396,-96.8429,2.0,42.92720022,30.49625879,-99999.0,'11111222,11111222,99999999' 
TABS,ioos:station:wmo:42048:1,2017-07-02T21:30:00Z,27.9396,-96.8429,2.0,42.53496238,31.72895996,-99999.0,'11111222,11111222,99999999' 
TABS,ioos:station:wmo:42048:1,2017-07-02T22:00:00Z,27.9396,-96.8429,2.0,42.76357896,35.33275676,-99999.0,'11111222,11111222,99999999' 
TABS,ioos:station:wmo:42048:1,2017-07-02T22:30:00Z,27.9396,-96.8429,2.0,42.1351978,32.2561002,-99999.0,'11111222,11111222,99999999' 
TABS,ioos:station:wmo:42048:1,2017-07-02T23:00:00Z,27.9396,-96.8429,2.0,43.96393333,29.71748643,-99999.0,'11111222,11111222,99999999' 
TABS,ioos:station:wmo:42048:1,2017-07-02T23:30:00Z,27.9396,-96.8429,2.0,45.96637869,28.93185269,-99999.0,'11111222,11111222,99999999' 
TABS,ioos:station:wmo:42048:1,2017-07-03T00:00:00Z,27.9396,-96.8429,2.0,48.29995762,27.14841616,-99999.0,'11111222,11111222,99999999' 
TABS,ioos:station:wmo:42048:1,2017-07-03T00:30:00Z,27.9396,-96.8429,2.0,41.46747365,28.91904909,-99999.0,'11111222,11111222,99999999' 
TABS,ioos:station:wmo:42048:1,2017-07-03T01:00:00Z,27.9396,-96.8429,2.0,37.75700283,31.91182383,-99999.0,'11111222,11111222,99999999' 
TABS,ioos:station:wmo:42048:1,2017-07-03T01:30:00Z,27.9396,-96.8429,2.0,38.72994015,34.50818019,-99999.0,'11111222,11111222,99999999' 
TABS,ioos:station:wmo:42048:1,2017-07-03T02:00:00Z,27.9396,-96.8429,2.0,40.16439405,39.67556553,-99999.0,'11111222,11111222,99999999' 
TABS,ioos:station:wmo:42048:1,2017-07-03T02:30:00Z,27.9396,-96.8429,2.0,46.90751731,38.87705879,-99999.0,'11111222,11111222,99999999' 
TABS,ioos:station:wmo:42048:1,2017-07-03T03:00:00Z,27.9396,-96.8429,2.0,42.70243834,36.6859101,-99999.0,'11111222,11111222,99999999' 
TABS,ioos:station:wmo:42048:1,2017-07-03T03:30:00Z,27.9396,-96.8429,2.0,40.46362096,40.14092799,-99999.0,'11111222,11111222,99999999' 
TABS,ioos:station:wmo:42048:1,2017-07-03T04:00:00Z,27.9396,-96.8429,2.0,43.87797312,40.80081494,-99999.0,'11111222,11111222,99999999' 
TABS,ioos:station:wmo:42048:1,2017-07-03T04:30:00Z,27.9396,-96.8429,2.0,43.76907591,36.86291361,-99999.0,'11111222,11111222,99999999' 
TABS,ioos:station:wmo:42048:1,2017-07-03T05:00:00Z,27.9396,-96.8429,2.0,48.28442138,35.91637649,-99999.0,'11111222,11111222,99999999' 
TABS,ioos:station:wmo:42048:1,2017-07-03T05:30:00Z,27.9396,-96.8429,2.0,48.6083777,38.76265342,-99999.0,'11111222,11111222,99999999' 
TABS,ioos:station:wmo:42048:1,2017-07-03T06:00:00Z,27.9396,-96.8429,2.0,47.75490417,41.93039113,-99999.0,'11111222,11111222,99999999' 
TABS,ioos:station:wmo:42048:1,2017-07-03T06:30:00Z,27.9396,-96.8429,2.0,50.86163292,41.12823361,-99999.0,'11111222,11111222,99999999' 
TABS,ioos:station:wmo:42048:1,2017-07-03T07:00:00Z,27.9396,-96.8429,2.0,54.2909201,41.17044814,-99999.0,'11111222,11111222,99999999' 
TABS,ioos:station:wmo:42048:1,2017-07-03T07:30:00Z,27.9396,-96.8429,2.0,52.77074758,39.85078418,-99999.0,'11111222,11111222,99999999' 
TABS,ioos:station:wmo:42048:1,2017-07-03T08:00:00Z,27.9396,-96.8429,2.0,42.58502117,61.91977148,-99999.0,'11111222,11111222,99999999' 
TABS,ioos:station:wmo:42048:1,2017-07-03T08:30:00Z,27.9396,-96.8429,2.0,47.03748843,55.88969583,-99999.0,'11111222,11111222,99999999' 
TABS,ioos:station:wmo:42048:1,2017-07-03T09:00:00Z,27.9396,-96.8429,2.0,50.95722241,53.96080244,-99999.0,'11111222,11111222,99999999' 
TABS,ioos:station:wmo:42048:1,2017-07-03T09:30:00Z,27.9396,-96.8429,2.0,54.98859381,50.63263177,-99999.0,'11111222,11111222,99999999' 
TABS,ioos:station:wmo:42048:1,2017-07-03T10:00:00Z,27.9396,-96.8429,2.0,54.6395928,45.85991278,-99999.0,'11111222,11111222,99999999' 
TABS,ioos:station:wmo:42048:1,2017-07-03T10:30:00Z,27.9396,-96.8429,2.0,50.07442518,39.09358643,-99999.0,'11111222,11111222,99999999' 
TABS,ioos:station:wmo:42048:1,2017-07-03T11:00:00Z,27.9396,-96.8429,2.0,43.49519202,59.23355299,-99999.0,'11111222,11111222,99999999' 
TABS,ioos:station:wmo:42048:1,2017-07-03T11:30:00Z,27.9396,-96.8429,2.0,50.27249522,49.86400906,-99999.0,'11111222,11111222,99999999' 
TABS,ioos:station:wmo:42048:1,2017-07-03T12:00:00Z,27.9396,-96.8429,2.0,51.84142084,44.63929211,-99999.0,'11111222,11111222,99999999' 
TABS,ioos:station:wmo:42048:1,2017-07-03T12:30:00Z,27.9396,-96.8429,2.0,54.45895002,38.55236698,-99999.0,'11111222,11111222,99999999' 
TABS,ioos:station:wmo:42048:1,2017-07-03T13:00:00Z,27.9396,-96.8429,2.0,53.46655221,36.45262816,-99999.0,'11111222,11111222,99999999' 
TABS,ioos:station:wmo:42048:1,2017-07-03T13:30:00Z,27.9396,-96.8429,2.0,51.68012781,47.65726178,-99999.0,'11111222,11111222,99999999' 
TABS,ioos:station:wmo:42048:1,2017-07-03T14:00:00Z,27.9396,-96.8429,2.0,54.08468918,39.49948101,-99999.0,'11111222,11111222,99999999' 
TABS,ioos:station:wmo:42048:1,2017-07-03T14:30:00Z,27.9396,-96.8429,2.0,48.8377173,34.3363146,-99999.0,'11111222,11111222,99999999' 
TABS,ioos:station:wmo:42048:1,2017-07-03T15:00:00Z,27.9396,-96.8429,2.0,51.91024172,45.37228449,-99999.0,'11111222,11111222,99999999' 
TABS,ioos:station:wmo:42048:1,2017-07-03T15:30:00Z,27.9396,-96.8429,2.0,50.95715028,48.57893474,-99999.0,'11111222,11111222,99999999' 
TABS,ioos:station:wmo:42048:1,2017-07-03T16:00:00Z,27.9396,-96.8429,2.0,42.15313604,49.82767504,-99999.0,'11111222,11111222,99999999' 
TABS,ioos:station:wmo:42048:1,2017-07-03T16:30:00Z,27.9396,-96.8429,2.0,41.08654491,44.96370314,-99999.0,'11111222,11111222,99999999' 
TABS,ioos:station:wmo:42048:1,2017-07-03T17:00:00Z,27.9396,-96.8429,2.0,39.89566612,47.28791918,-99999.0,'11111222,11111222,99999999' 
TABS,ioos:station:wmo:42048:1,2017-07-03T17:30:00Z,27.9396,-96.8429,2.0,42.92049621,49.88388317,-99999.0,'11111222,11111222,99999999' 
TABS,ioos:station:wmo:42048:1,2017-07-03T18:00:00Z,27.9396,-96.8429,2.0,45.33733292,48.05580922,-99999.0,'11111222,11111222,99999999' 
TABS,ioos:station:wmo:42048:1,2017-07-03T18:30:00Z,27.9396,-96.8429,2.0,41.28461377,49.75762253,-99999.0,'11111222,11111222,99999999' 
TABS,ioos:station:wmo:42048:1,2017-07-03T19:00:00Z,27.9396,-96.8429,2.0,48.29374895,46.39920797,-99999.0,'11111222,11111222,99999999' 
TABS,ioos:station:wmo:42048:1,2017-07-03T19:30:00Z,27.9396,-96.8429,2.0,50.77159358,41.69732485,-99999.0,'11111222,11111222,99999999' 
TABS,ioos:station:wmo:42048:1,2017-07-03T20:00:00Z,27.9396,-96.8429,2.0,48.82785009,39.40303542,-99999.0,'11111222,11111222,99999999' 
TABS,ioos:station:wmo:42048:1,2017-07-03T20:30:00Z,27.9396,-96.8429,2.0,47.6576961,33.09283457,-99999.0,'11111222,11111222,99999999' 
TABS,ioos:station:wmo:42048:1,2017-07-03T21:00:00Z,27.9396,-96.8429,2.0,47.33324968,35.78098098,-99999.0,'11111222,11111222,99999999' 
TABS,ioos:station:wmo:42048:1,2017-07-03T21:30:00Z,27.9396,-96.8429,2.0,43.33822196,32.91552369,-99999.0,'11111222,11111222,99999999' 
TABS,ioos:station:wmo:42048:1,2017-07-03T22:00:00Z,27.9396,-96.8429,2.0,41.53252716,38.11212143,-99999.0,'11111222,11111222,99999999' 
TABS,ioos:station:wmo:42048:1,2017-07-03T22:30:00Z,27.9396,-96.8429,2.0,42.63477096,36.83629324,-99999.0,'11111222,11111222,99999999' 
TABS,ioos:station:wmo:42048:1,2017-07-03T23:00:00Z,27.9396,-96.8429,2.0,41.96909619,39.71718142,-99999.0,'11111222,11111222,99999999' 
TABS,ioos:station:wmo:42048:1,2017-07-03T23:30:00Z,27.9396,-96.8429,2.0,39.92281868,38.83110609,-99999.0,'11111222,11111222,99999999' 
TABS,ioos:station:wmo:42048:1,2017-07-04T00:00:00Z,27.9396,-96.8429,2.0,40.98422615,41.39667861,-99999.0,'11111222,11111222,99999999' 
TABS,ioos:station:wmo:42048:1,2017-07-04T00:30:00Z,27.9396,-96.8429,2.0,38.4054315,40.0823914,-99999.0,'11111222,11111222,99999999' 
TABS,ioos:station:wmo:42048:1,2017-07-04T01:00:00Z,27.9396,-96.8429,2.0,40.38803544,36.40660654,-99999.0,'11111222,11111222,99999999' 
TABS,ioos:station:wmo:42048:1,2017-07-04T01:30:00Z,27.9396,-96.8429,2.0,33.53502877,33.79523339,-99999.0,'11111222,11111222,99999999' 
TABS,ioos:station:wmo:42048:1,2017-07-04T02:00:00Z,27.9396,-96.8429,2.0,36.99340096,40.86609475,-99999.0,'11111222,11111222,99999999' 
TABS,ioos:station:wmo:42048:1,2017-07-04T02:30:00Z,27.9396,-96.8429,2.0,33.78575418,38.24940522,-99999.0,'11111222,11111222,99999999' 
TABS,ioos:station:wmo:42048:1,2017-07-04T03:00:00Z,27.9396,-96.8429,2.0,33.47016774,38.27736929,-99999.0,'11111222,11111222,99999999' 
TABS,ioos:station:wmo:42048:1,2017-07-04T03:30:00Z,27.9396,-96.8429,2.0,29.98606411,40.09706348,-99999.0,'11111222,11111222,99999999' 
TABS,ioos:station:wmo:42048:1,2017-07-04T04:00:00Z,27.9396,-96.8429,2.0,37.2141272,40.2947267,-99999.0,'11111222,11111222,99999999' 
TABS,ioos:station:wmo:42048:1,2017-07-04T04:30:00Z,27.9396,-96.8429,2.0,42.16873135,35.21447998,-99999.0,'11111222,11111222,99999999' 
TABS,ioos:station:wmo:42048:1,2017-07-04T05:00:00Z,27.9396,-96.8429,2.0,38.5276227,37.19756578,-99999.0,'11111222,11111222,99999999' 
TABS,ioos:station:wmo:42048:1,2017-07-04T05:30:00Z,27.9396,-96.8429,2.0,41.37420462,30.0768898,-99999.0,'11111222,11111222,99999999' 
TABS,ioos:station:wmo:42048:1,2017-07-04T06:00:00Z,27.9396,-96.8429,2.0,41.87945769,39.87631503,-99999.0,'11111222,11111222,99999999' 
TABS,ioos:station:wmo:42048:1,2017-07-04T06:30:00Z,27.9396,-96.8429,2.0,44.36455922,34.42407588,-99999.0,'11111222,11111222,99999999' 
TABS,ioos:station:wmo:42048:1,2017-07-04T07:00:00Z,27.9396,-96.8429,2.0,40.68524881,45.95785134,-99999.0,'11111222,11111222,99999999' 
TABS,ioos:station:wmo:42048:1,2017-07-04T07:30:00Z,27.9396,-96.8429,2.0,38.29402714,44.2636702,-99999.0,'11111222,11111222,99999999' 
TABS,ioos:station:wmo:42048:1,2017-07-04T08:00:00Z,27.9396,-96.8429,2.0,43.55995522,37.70070026,-99999.0,'11111222,11111222,99999999' 
TABS,ioos:station:wmo:42048:1,2017-07-04T08:30:00Z,27.9396,-96.8429,2.0,44.47907465,41.98973684,-99999.0,'11111222,11111222,99999999' 
TABS,ioos:station:wmo:42048:1,2017-07-04T09:00:00Z,27.9396,-96.8429,2.0,41.48954084,46.88430441,-99999.0,'11111222,11111222,99999999' 
TABS,ioos:station:wmo:42048:1,2017-07-04T09:30:00Z,27.9396,-96.8429,2.0,49.5227075,43.13346844,-99999.0,'11111222,11111222,99999999' 
TABS,ioos:station:wmo:42048:1,2017-07-04T10:00:00Z,27.9396,-96.8429,2.0,47.29982885,46.16883148,-99999.0,'11111222,11111222,99999999' 
TABS,ioos:station:wmo:42048:1,2017-07-04T10:30:00Z,27.9396,-96.8429,2.0,37.04963919,46.57222885,-99999.0,'11111222,11111222,99999999' 
TABS,ioos:station:wmo:42048:1,2017-07-04T11:00:00Z,27.9396,-96.8429,2.0,51.63476574,51.95969688,-99999.0,'11111222,11111222,99999999' 
TABS,ioos:station:wmo:42048:1,2017-07-04T11:30:00Z,27.9396,-96.8429,2.0,48.16239559,46.14534429,-99999.0,'11111222,11111222,99999999' 
TABS,ioos:station:wmo:42048:1,2017-07-04T12:00:00Z,27.9396,-96.8429,2.0,51.06238314,35.41906408,-99999.0,'11111222,11111222,99999999' 
TABS,ioos:station:wmo:42048:1,2017-07-04T12:30:00Z,27.9396,-96.8429,2.0,54.80234711,36.05135226,-99999.0,'11111222,11111222,99999999' 
TABS,ioos:station:wmo:42048:1,2017-07-04T13:00:00Z,27.9396,-96.8429,2.0,53.12119914,38.24200047,-99999.0,'11111222,11111222,99999999' 
TABS,ioos:station:wmo:42048:1,2017-07-04T13:30:00Z,27.9396,-96.8429,2.0,53.76068666,40.53045398,-99999.0,'11111222,11111222,99999999' 
TABS,ioos:station:wmo:42048:1,2017-07-04T14:00:00Z,27.9396,-96.8429,2.0,52.01889787,40.21756457,-99999.0,'11111222,11111222,99999999' 
TABS,ioos:station:wmo:42048:1,2017-07-04T14:30:00Z,27.9396,-96.8429,2.0,54.40716764,47.02567916,-99999.0,'11111222,11111222,99999999' 
TABS,ioos:station:wmo:42048:1,2017-07-04T15:00:00Z,27.9396,-96.8429,2.0,56.541924,49.33543959,-99999.0,'11111222,11111222,99999999' 
TABS,ioos:station:wmo:42048:1,2017-07-04T15:30:00Z,27.9396,-96.8429,2.0,57.35886739,52.72754119,-99999.0,'11111222,11111222,99999999' 
TABS,ioos:station:wmo:42048:1,2017-07-04T16:00:00Z,27.9396,-96.8429,2.0,63.80114673,47.58897036,-99999.0,'11111222,11111222,99999999' 